Laredo, TX

5:28 PM CDT on May 26, 2017 (GMT -0500)
Laredo International

Weather History for KLRD - March, 2014

Change the Weather History Date:

Monday, March 31, 2014

  Actual Average Record
Temperature  
Mean Temperature 79 °F 72 °F  
Max Temperature 91 °F 84 °F 102 °F (1974)
Min Temperature 66 °F 60 °F 27 °F (1987)
Degree Days  
Heating Degree Days 0 1  
Month to date heating degree days 99 69  
Since 1 July heating degree days 1090 913  
Cooling Degree Days 14 8  
Month to date cooling degree days 136 173  
Year to date cooling degree days 248 258  
Growing Degree Days 28 (Base 50)    
Moisture  
Dew Point 61 °F    
Average Humidity 62    
Maximum Humidity 81    
Minimum Humidity 34    
Precipitation  
Precipitation 0.00 in 0.02 in 0.50 in (1935)
Month to date precipitation 1.04 1.12  
Year to date precipitation 1.25 2.96  
Sea Level Pressure  
Sea Level Pressure 29.89 in    
Wind  
Wind Speed 9 mph (SE)    
Max Wind Speed 21 mph    
Max Gust Speed 16 mph    
Visibility 10 miles    
Events      
T = Trace of Precipitation, MM = Missing Value Source: NWS Daily Summary

Daily Weather History Graph

Daily Weather History Graph

Search for Another Location

Airport or City:

Trip Planner

Search our weather history database for the weather conditions in past years. The results will help you decide how hot, cold, wet, or windy it might be!

Date:

Astronomy

Mar. 31, 2014 Rise Set
Actual Time 7:29 AM CDT 7:54 PM CDT
Civil Twilight 7:05 AM CDT 8:18 PM CDT
Nautical Twilight 6:38 AM CDT 8:45 PM CDT
Astronomical Twilight 6:10 AM CDT 9:13 PM CDT
Moon 7:59 AM CDT (3/31) 9:06 PM CDT (3/31)
Length of Visible Light 13h 12m
Length of Day
12h 25m
New Moon, 1% of the Moon is Illuminated
Mar 31
New Moon
Apr 7
First Quarter
Apr 15
Full
Apr 22
Last Quarter
Apr 29
New

Hourly Weather History & Observations

Time (CDT) Temp. Heat Index Dew Point Humidity Pressure Visibility Wind Dir Wind Speed Gust Speed Precip Events Conditions
12:56 AM 68.0 °F - 57.9 °F 70% 29.98 in 10.0 mi SE 13.8 mph - N/A   Clear
1:56 AM 66.9 °F - 59.0 °F 76% 29.97 in 10.0 mi SE 9.2 mph - N/A   Mostly Cloudy
2:11 AM 66.2 °F - 59.0 °F 78% 29.99 in 10.0 mi SE 10.4 mph - N/A   Partly Cloudy
2:56 AM 65.8 °F - 59.9 °F 81% 29.93 in 10.0 mi SE 11.5 mph - N/A   Clear
3:21 AM 66.2 °F - 60.8 °F 83% 29.95 in 10.0 mi SE 9.2 mph - N/A   Mostly Cloudy
3:56 AM 66.9 °F - 61.0 °F 81% 29.90 in 10.0 mi SE 9.2 mph - N/A   Overcast
4:56 AM 66.9 °F - 61.0 °F 81% 29.88 in 10.0 mi SE 13.8 mph - N/A   Overcast
5:56 AM 66.9 °F - 61.0 °F 81% 29.88 in 10.0 mi SSE 15.0 mph - N/A   Overcast
6:56 AM 66.9 °F - 61.0 °F 81% 29.90 in 10.0 mi SE 12.7 mph - N/A   Overcast
7:56 AM 66.9 °F - 61.0 °F 81% 29.90 in 10.0 mi SE 9.2 mph - N/A   Mostly Cloudy
8:56 AM 68.9 °F - 61.0 °F 76% 29.93 in 10.0 mi SE 12.7 mph - N/A   Mostly Cloudy
9:23 AM 69.8 °F - 60.8 °F 73% 29.96 in 10.0 mi SE 15.0 mph - N/A   Scattered Clouds
9:56 AM 72.0 °F - 61.0 °F 68% 29.93 in 10.0 mi SSE 13.8 mph - N/A   Clear
10:56 AM 75.9 °F - 61.0 °F 60% 29.93 in 10.0 mi SSE 11.5 mph - N/A   Partly Cloudy
11:56 AM 79.0 °F - 61.0 °F 54% 29.92 in 10.0 mi South 10.4 mph - N/A   Clear
12:56 PM 82.9 °F 83.3 °F 61.0 °F 47% 29.91 in 10.0 mi South 9.2 mph - N/A   Clear
1:56 PM 86.0 °F 86.1 °F 61.0 °F 43% 29.88 in 10.0 mi Variable 6.9 mph - N/A   Clear
2:56 PM 86.9 °F 86.5 °F 59.9 °F 40% 29.85 in 10.0 mi ENE 4.6 mph - N/A   Clear
3:56 PM 88.0 °F 87.6 °F 59.9 °F 39% 29.82 in 10.0 mi ESE 5.8 mph - N/A   Clear
4:56 PM 90.0 °F 88.8 °F 57.9 °F 34% 29.81 in 10.0 mi Variable 3.5 mph - N/A   Clear
5:56 PM 90.0 °F 88.8 °F 57.9 °F 34% 29.79 in 10.0 mi Variable 3.5 mph - N/A   Clear
6:56 PM 90.9 °F 89.7 °F 57.9 °F 33% 29.78 in 10.0 mi East 9.2 mph - N/A   Clear
7:56 PM 86.9 °F 85.9 °F 57.9 °F 37% 29.81 in 10.0 mi East 8.1 mph - N/A   Clear
8:56 PM 83.8 °F 84.1 °F 61.0 °F 46% 29.82 in 10.0 mi SE 10.4 mph - N/A   Clear
9:56 PM 81.9 °F 83.1 °F 63.0 °F 53% 29.85 in 10.0 mi SE 13.8 mph - N/A   Clear
10:56 PM 79.0 °F - 64.9 °F 62% 29.87 in 10.0 mi SE 13.8 mph - N/A   Clear
11:56 PM 75.9 °F - 64.9 °F 69% 29.89 in 10.0 mi SE 9.2 mph - N/A   Clear